Погода в Нову-Амбургу

Бразилия     29°40′49″S   51°07′38″W
темп.,
°C
ветер,
м/с
пор.,
м/с
влажн.,
%
обл.,
%
осадки,
мм/ч
давл.,
гПа
погр.,
м
26 февраля, пт
пт2600:00+22в37780 0.0 1015371
03:00+20всв23840 0.0 1015227
06:00+20всв12840 0.0 1015199
09:00+25в12590 0.0 1016561
12:00+31юв23330 0.0 10161348
15:00+32юв44310 0.0 10141754
18:00+27юв69490 0.0 1015875
21:00+23вюв511620 0.0 1017589
27 февраля, сб
сб2700:00+22в37700 0.0 1017477
03:00+20в24770 0.0 1017275
06:00+19всв12800 0.0 1018170
09:00+24вюв25663 0.0 1020649
12:00+29вюв465363 0.0 10191375
15:00+30вюв684759 0.3 10181564
18:00+27вюв6105315 0.1 10181270
21:00+23в511668 0.1 10191131
28 февраля, вс
вс2800:00+22в411680 0.0 1019873
03:00+20в25780 0.0 1017449
06:00+20всв14820 0.0 1018266
09:00+25в386625 0.1 1018894
12:00+29вюв574933 0.2 10171609
15:00+30вюв694846 0.3 10151659
18:00+27вюв711598 0.0 10141351
21:00+24вюв5117111 0.0 1015991
1 марта, пн
пн100:00+23вюв497896 0.0 1014625
03:00+22всв138586 0.0 1013240
06:00+21ссв12862 0.0 1013182
09:00+26всв236413 0.1 1013488
12:00+32ююв214332 0.4 10121253
15:00+30вюв565343 0.8 10101395
18:00+29вюв465863 0.4 10101112
21:00+25вюв377135 0.4 1011460
2 марта, вт
вт200:00+23вюв36850 0.0 1011342
03:00+22всв12882 0.0 1010215
06:00+22св11854 0.0 1011166
09:00+27св01592 0.0 1012432
12:00+33ю21420 0.0 10121235
15:00+34ю54421 0.0 10101805
18:00+29юв475861 0.3 10101151
21:00+26вюв376845 0.3 1012575